This demonstration page uses our WeatherBlox Daily Observations layout. Learn more.

Left ArrowRight Arrow

Hourly Observations for November 2, 2016

Temp ( °F °C ) Dew Point ( °F °C ) Humidity (%) Winds ( mph kmh ) Pressure ( in mb ) Visibility ( mi km ) Precip ( " mm )
12:53 am 00:53 Mostly Clear 69 20.6 56 13.3 63 63 SE 13 20 29.82 1010 10 16 0.00 0.00
1:53 am 01:53 Clear 67 19.4 57 13.9 71 71 SE 10 17 29.83 1010 10 16 0.00 0.00
2:53 am 02:53 Clear 68 20 57 13.9 68 68 SE 13 20 29.83 1010 10 16 0.00 0.00
3:53 am 03:53 Clear 68 20 57 13.9 68 68 SE 12 19 29.82 1010 10 16 0.00 0.00
4:53 am 04:53 Clear 68 20 58 14.4 70 70 SE 13 20 29.81 1010 10 16 0.00 0.00
5:53 am 05:53 Mostly Clear 66 18.9 58 14.4 75 75 SE 12 19 29.83 1010 10 16 0.00 0.00
6:53 am 06:53 Mostly Cloudy 67 19.4 59 15 76 76 SE 10 17 29.84 1011 10 16 0.00 0.00
7:53 am 07:53 Cloudy 67 19.4 59 15 76 76 SE 10 17 29.86 1011 10 16 0.00 0.00
8:53 am 08:53 Partly Cloudy 67 19.4 60 15.6 79 79 SE 8 13 29.89 1012 10 16 0.00 0.00
9:53 am 09:53 Sunny 68 20 60 15.6 76 76 SSE 12 19 29.92 1013 10 16 0.00 0.00
10:53 am 10:53 Sunny 71 21.7 60 15.6 68 68 SSE 14 22 29.93 1014 10 16 0.00 0.00
11:53 am 11:53 Sunny 72 22.2 60 15.6 66 66 S 10 17 29.95 1014 10 16 0.00 0.00
12:53 pm 12:53 Partly Cloudy 76 24.4 59 15 56 56 S 5 7 29.93 1014 10 16 0.00 0.00
1:53 pm 13:53 Sunny 79 26.1 53 11.7 41 41 SSE 3 6 29.92 1013 10 16 0.00 0.00
2:53 pm 14:53 Mostly Sunny 80 26.7 55 12.8 42 42 VRB 3 6 29.91 1013 10 16 0.00 0.00
3:53 pm 15:53 Sunny 80 26.7 57 13.9 45 45 NNE 12 19 29.90 1013 10 16 0.00 0.00
4:53 pm 16:53 Sunny 79 26.1 59 15 50 50 N 8 13 29.91 1013 10 16 0.00 0.00
5:53 pm 17:53 Sunny 79 26.1 59 15 50 50 NNE 10 17 29.92 1013 10 16 0.00 0.00
6:53 pm 18:53 Sunny 77 25 58 14.4 52 52 E 5 7 29.93 1014 10 16 0.00 0.00
7:53 pm 19:53 Mostly Cloudy 71 21.7 58 14.4 63 63 NE 16 26 29.97 1015 10 16 0.00 0.00
8:53 pm 20:53 Cloudy 69 20.6 56 13.3 63 63 NE 17 28 30.00 1016 10 16 0.00 0.00
9:53 pm 21:53 Mostly Cloudy 68 20 58 14.4 70 70 NE 14 22 30.03 1017 10 16 0.00 0.00
10:53 pm 22:53 Mostly Cloudy 66 18.9 59 15 78 78 ENE 13 20 30.04 1017 10 16 0.00 0.00
11:17 pm 23:17 Mostly Cloudy 64 17.8 59 15 84 84 NE 14 22 30.06 1018 10 16 0.00 0.00
11:27 pm 23:27 Cloudy 63 17.2 59 15 87 87 ENE 20 31 30.09 1019 10 16 0.00 0.00
11:53 pm 23:53 Cloudy 63 17.2 58 14.4 84 84 ENE 18 30 30.05 1018 10 16 0.00 0.00

Powered by AerisWeather